Location: Wanzleben
(52.0609°N, 11.4408°E)
Time: 06:51:58
(UTC+00:00)

Cosmos 1634 Rocket - Pass Details

Date: 18 September 2020
Orbit: 961 x 991 km, 82.9° (Epoch: 19 October)

Event Time Altitude Azimuth Distance (km) Brightness Sun altitude
Exits shadow 19:34:24 28° 159° (SSE) 1,719 4.9 -20.3°
Maximum altitude 19:37:35 57° 93° (E) 1,129 4.0 -20.7°
Drops below altitude 10° 19:43:38 10° 17° (NNE) 2,718 6.5 -21.5°
Sets 19:46:11 0° 13° (NNE) 3,673 7.3 -21.8°
